Location: Maiden_LMO
(35.5760°N, 81.2120°W)
Time: 23:30:59
(UTC-05:00)

ADEOS II - Visible Passes

Search period start: 19 December 2014 00:00
Search period end: 29 December 2014 00:00
Orbit: 800 x 803 km, 98.3° (Epoch: 18 December)

Date Brightness Start Highest point End Pass type
(mag) Time Alt. Az. Time Alt. Az. Time Alt. Az.
19 Dec 4.2 05:23:43 10° NE 05:28:04 26° E 05:32:24 10° SSE visible
19 Dec 4.2 18:20:02 10° SSW 18:24:32 29° W 18:29:04 10° NW visible
20 Dec 5.1 04:59:01 10° ENE 05:01:47 14° E 05:04:31 10° SE visible
20 Dec 2.1 06:36:42 10° N 06:41:51 58° WNW 06:46:59 10° SSW visible
20 Dec 3.1 17:53:15 10° S 17:58:21 53° W 18:03:29 10° NNW visible
21 Dec 2.2 06:10:33 10° NNE 06:15:50 79° ESE 06:21:04 10° S visible
22 Dec 3.3 05:44:43 10° NNE 05:49:42 43° E 05:54:40 10° S visible
22 Dec 5.0 18:42:47 10° SW 18:46:13 18° W 18:49:41 10° NW visible
23 Dec 4.4 05:19:18 10° NE 05:23:30 24° E 05:27:40 10° SSE visible
23 Dec 2.6 06:58:31 10° N 07:03:16 35° WNW 07:07:59 10° SW visible
23 Dec 4.1 18:15:20 10° SSW 18:19:57 32° W 18:24:37 10° NW visible
24 Dec 5.2 04:54:51 10° ENE 04:57:11 13° E 04:59:30 10° ESE visible
24 Dec 2.1 06:32:07 10° N 06:37:19 64° WNW 06:42:29 10° SSW visible
24 Dec 2.9 17:48:38 10° S 17:53:47 58° W 17:58:58 10° NNW visible
25 Dec 2.3 06:06:01 10° NNE 06:11:16 72° ESE 06:16:29 10° S visible
26 Dec 3.5 05:40:13 10° NNE 05:45:08 39° E 05:50:00 10° SSE visible
26 Dec 4.9 18:37:56 10° SW 18:41:37 19° W 18:45:20 10° NW visible
27 Dec 4.5 05:14:53 10° NE 05:18:54 22° E 05:22:53 10° SE visible
27 Dec 2.5 06:53:53 10° N 06:58:43 39° WNW 07:03:32 10° SW visible
27 Dec 3.9 18:10:38 10° SSW 18:15:22 35° W 18:20:08 10° NNW visible
28 Dec 5.2 04:50:47 10° ENE 04:52:34 12° E 04:54:20 10° ESE visible
28 Dec 2.0 06:27:31 10° N 06:32:45 70° WNW 06:37:57 10° SSW visible
28 Dec 2.7 17:44:01 10° S 17:49:12 63° W 17:54:25 10° NNW visible
